TimePDT,TemperatureF,Dew PointF,Humidity,Sea Level PressureIn,VisibilityMPH,Wind Direction,Wind SpeedMPH,Gust SpeedMPH,PrecipitationIn,Events,Conditions,WindDirDegrees,DateUTC
12:53 AM,63.0,50.0,63,30.11,10.0,North,3.5,-,N/A,,Clear,360,2013-08-21 07:53:00
1:53 AM,62.1,48.9,62,30.11,10.0,Calm,Calm,-,N/A,,Clear,0,2013-08-21 08:53:00
2:53 AM,62.1,52.0,70,30.10,10.0,NNW,6.9,-,N/A,,Clear,340,2013-08-21 09:53:00
3:53 AM,61.0,51.1,70,30.09,10.0,NNW,5.8,-,N/A,,Clear,340,2013-08-21 10:53:00
4:53 AM,59.0,50.0,72,30.09,10.0,NNW,8.1,-,N/A,,Clear,330,2013-08-21 11:53:00
5:53 AM,55.0,50.0,83,30.09,10.0,East,3.5,-,N/A,,Clear,100,2013-08-21 12:53:00
6:53 AM,54.0,50.0,86,30.10,10.0,Calm,Calm,-,N/A,,Clear,0,2013-08-21 13:53:00
7:53 AM,59.0,54.0,83,30.10,10.0,NNW,6.9,-,N/A,,Clear,330,2013-08-21 14:53:00
8:53 AM,62.1,54.0,75,30.10,10.0,NNW,4.6,-,N/A,,Clear,330,2013-08-21 15:53:00
9:53 AM,66.0,54.0,65,30.09,10.0,WNW,5.8,-,N/A,,Clear,300,2013-08-21 16:53:00
10:53 AM,70.0,54.0,57,30.08,10.0,NW,10.4,-,N/A,,Clear,310,2013-08-21 17:53:00
11:53 AM,73.0,54.0,51,30.06,10.0,NW,10.4,-,N/A,,Clear,310,2013-08-21 18:53:00
12:53 PM,75.9,52.0,43,30.04,7.0,NW,11.5,-,N/A,,Clear,310,2013-08-21 19:53:00
1:53 PM,78.1,52.0,40,30.03,9.0,WNW,11.5,-,N/A,,Clear,300,2013-08-21 20:53:00
2:53 PM,80.1,53.1,39,30.01,10.0,NW,13.8,-,N/A,,Clear,310,2013-08-21 21:53:00
3:53 PM,79.0,53.1,40,29.99,10.0,NW,13.8,-,N/A,,Clear,310,2013-08-21 22:53:00
4:53 PM,79.0,55.0,44,29.96,10.0,NW,12.7,-,N/A,,Clear,310,2013-08-21 23:53:00
5:53 PM,78.1,55.0,45,29.96,10.0,NW,11.5,-,N/A,,Clear,310,2013-08-22 00:53:00
6:53 PM,77.0,55.9,48,29.95,10.0,NW,10.4,-,N/A,,Clear,310,2013-08-22 01:53:00
7:53 PM,75.9,55.9,50,29.95,10.0,NW,12.7,-,N/A,,Clear,320,2013-08-22 02:53:00
8:53 PM,73.0,55.9,55,29.96,10.0,NW,10.4,-,N/A,,Clear,320,2013-08-22 03:53:00
9:53 PM,71.1,54.0,55,29.97,10.0,NNW,6.9,-,N/A,,Clear,330,2013-08-22 04:53:00
10:53 PM,70.0,55.9,61,29.96,10.0,NNW,4.6,-,N/A,,Clear,340,2013-08-22 05:53:00
11:53 PM,68.0,55.9,65,29.96,10.0,North,4.6,-,N/A,,Clear,350,2013-08-22 06:53:00